User: anonymous   Login
Location: Ay?beleni
(36.6500°N, 30.3000°E)
Time: 00:50:27
(UTC+00:00)
Language:

NOSS 3-4 (C) - Orbit

View from above orbital plane
View from above orbital plane
View from above satellite
View from above satellite

Ground track
Ground track

The orbit data is extracted from the following two-line orbital elements,

1 31708U 07027C   20187.90190903 0.00000000  00000-0  00000-0 0    07
2 31708  63.3973 120.1904 0284886  19.8767 340.1233 13.40804028    09
Epoch (UTC): 05 July 2020 21:38:44
Eccentricity: 0.0284886
inclination: 63.3973°
perigee height: 893 km
apogee height: 1319 km
right ascension of ascending node: 120.1904°
argument of perigee: 19.8767°
revolutions per day: 13.40804028
mean anomaly at epoch: 340.1233°
orbit number at epoch: 0

The dashed part of the orbit path shows where the satellite is in the earth's shadow,  

DLR